Location: Goettingen
(51.5300°N, 9.9433°E)
Time: 07:13:57
(UTC+01:00)

ISS - Pass Details

Date: 08 December 2019
Orbit: 411 x 421 km, 51.6° (Epoch: 15 December)

Event Time Altitude Azimuth Distance (km) Brightness Sun altitude
Rises 16:46:56 0° 281° (W) 2,356 0.9 -5.4°
Reaches altitude 10° 16:49:02 10° 279° (W) 1,494 -0.1 -5.7°
Maximum altitude 16:52:23 71° 195° (SSW) 445 -3.5 -6.1°
Drops below altitude 10° 16:55:43 10° 111° (ESE) 1,496 -1.3 -6.6°
Sets 16:57:49 0° 110° (ESE) 2,360 -0.3 -6.9°
Enters shadow 16:57:51 - 110° (ESE) 2,372 -0.3 -6.9°
